Location: ??? ???
(33.4974°N, 35.4618°E)
Time: 00:51:51
(UTC+00:00)

Cosmos 1892 - Pass Details

Date: 29 October 2020
Orbit: 504 x 523 km, 82.5° (Epoch: 25 November)

Event Time Altitude Azimuth Distance (km) Brightness Sun altitude
Rises 15:22:56 0° 7° (N) 2,659 6.1 -7.8°
Reaches altitude 10° 15:25:20 10° 21° (NNE) 1,766 5.1 -8.2°
Maximum altitude 15:28:37 26° 79° (ENE) 1,062 3.7 -8.9°
Drops below altitude 10° 15:31:53 10° 136° (SE) 1,754 5.1 -9.6°
Sets 15:34:16 0° 150° (SSE) 2,636 6.1 -10.1°
